[[{"header":{"parameterUnit":"m.s-1","parameterCategory":1,"la1":30.2991,"la2":30.254,"lo1":-89.0895,"lo2":-89.0444,"dy":0.0017,"dx":0.0017,"nx":28,"ny":28,"refTime":"2023-07-31T03:00:00:Z","depth":0,"parameterNumber":2,"parameterNumberName":"U-component_of_WINDS"},"data":[0,0,0,0,0,0,0,0,0,0,0,0,0,0,0,0,0,0,0,0,0,0,0,0,0,0,0,0,0,0,0,0,0,0,0,0,0,0,0,0,0,0,0,0,0,0,0,0,0,0,0,0,0,0,0,0,0,0,0.6602,0.6602,0,0.6584,0.6583,0.6583,0.6496,0.6494,0.6492,0.649,0.6477,0.6479,0.648,0,0,0,0,0,0,0,0,0,0,0,0,0,0.6566,0.6568,0.6602,0.6602,0.6601,0.6584,0.6583,0.6583,0.6496,0.6494,0.6491,0.6489,0.6477,0.6479,0.6481,0,0,0,0,0,0,0,0,0,0,0,0,0,0.6569,0.6568,0.6602,0.6556,0.6551,0.6584,0.6583,0.6583,0.6497,0.6494,0.6491,0.6488,0.6476,0.6478,0.6481,0.6558,0,0,0.6488,0.6489,0,0,0,0,0,0,0,0,0.6569,0.657,0.6563,0.6559,0.6554,0.6539,0.6566,0.6575,0.6498,0.6518,0.649,0.6486,0.6501,0.6501,0.6504,0.6557,0.6557,0.6488,0.649,0.6491,0.6492,0,0,0,0,0,0,0,0.6569,0.657,0.6595,0.6563,0.6558,0.6538,0.6534,0.6567,0.6527,0.6516,0.6509,0.6508,0.6498,0.6502,0.6504,0.6557,0.6488,0.649,0.6492,0.6493,0.6671,0.6674,0,0,0,0,0,0,0.6574,0.6571,0.6595,0.6594,0.6554,0.6541,0.6537,0.6547,0.6526,0.652,0.6511,0.6504,0.65,0.6501,0.6503,0.6591,0.6491,0.6493,0.6494,0.6668,0.6672,0.6676,0,0,0,0,0,0,0.6574,0.6577,0.6596,0.6581,0.6582,0.6545,0.6556,0.6548,0.6552,0.6522,0.6515,0.6522,0.6497,0.6499,0.6544,0.6589,0.6494,0.6496,0.6664,0.6669,0.6674,0.6768,0,0,0,0,0,0,0.6573,0.6578,0.6605,0.6582,0.6583,0.6637,0.6559,0.655,0.6556,0.6547,0.6532,0.6526,0.6495,0.6541,0.6547,0.6591,0.6498,0.666,0.6666,0.6672,0.6761,0.6775,0.6788,0,0,0,0,0,0.6572,0.6634,0.6607,0.6611,0.6616,0.6639,0.664,0.6601,0.656,0.6588,0.6569,0.6527,0.6583,0.6546,0.6552,0.6597,0.6657,0.6665,0.6672,0.6754,0.6773,0.6788,0,0,0,0,0,0,0.6666,0.663,0.66,0.6656,0.6651,0.6624,0.6659,0.6622,0.663,0.6622,0.6575,0.6572,0.6624,0.6615,0.6575,0.6671,0.6613,0.6622,0.6674,0.6691,0.6704,0.6705,0.65,0,0,0,0,0,0.6693,0.6713,0.6681,0.6734,0.6733,0.6697,0.6705,0.6675,0.6669,0.6667,0.6651,0.6649,0.6666,0.6678,0.6692,0.6759,0.6755,0.6793,0.6807,0.6818,0.6827,0.6861,0.6877,0.67,0.67,0.67,0,0,0.6749,0.6732,0.6748,0.6752,0.6745,0.6768,0.6695,0.6723,0.674,0.6672,0.6712,0.6701,0.6695,0.6751,0.6775,0.6745,0.6875,0.6828,0.6837,0.6839,0.687,0.6887,0.6902,0.6705,0.6704,0.6703,0,0,0.6863,0.6853,0.6894,0.6888,0.6877,0.6852,0.6863,0.6842,0.683,0.687,0.6819,0.684,0.687,0.6867,0.687,0.6983,0.6944,0.6989,0.7061,0.7095,0.7108,0.7121,0.716,0.7175,0.6997,0.6998,0.6998,0,0.6935,0.6966,0.6921,0.6951,0.6955,0.6892,0.6935,0.6932,0.6927,0.6932,0.6898,0.6934,0.6926,0.698,0.7007,0.7012,0.7022,0.699,0.711,0.7121,0.7132,0.7169,0.7184,0.7003,0.7002,0.7002,0.7001,0,0.7054,0.7076,0.7112,0.7106,0.7114,0.715,0.7112,0.7126,0.7096,0.7075,0.7116,0.7104,0.7114,0.7125,0.7097,0.7175,0.7157,0.7118,0.7059,0.7155,0.7189,0.7203,0.7011,0.7009,0.7007,0.7006,0,0,0.7227,0.7195,0.7208,0.7205,0.7188,0.7205,0.7239,0.7247,0.7259,0.7258,0.7286,0.7312,0.7275,0.7279,0.725,0.728,0.7368,0.7236,0.7235,0.726,0.7453,0.7482,0.7499,0.7343,0.7345,0.7347,0.7453,0,0.7335,0.7388,0.7349,0.741,0.743,0.7371,0.7401,0.7395,0.7377,0.7392,0.7373,0.7392,0.7342,0.7344,0.7371,0.7352,0.7406,0.7344,0.7369,0.737,0.7371,0.7517,0.7548,0.7649,0.7466,0.7469,0.747,0,0.7467,0.7469,0.7532,0.751,0.7517,0.7544,0.7547,0.7563,0.7555,0.754,0.7543,0.7506,0.7539,0.7482,0.7527,0.7486,0.7494,0.7486,0.7489,0.7489,0.7426,0.7521,0.768,0.7695,0.7491,0.7489,0.7488,0,0.7585,0.7605,0.7644,0.7643,0.7619,0.7639,0.763,0.7619,0.7626,0.763,0.7634,0.7643,0.7647,0.7656,0.7623,0.7584,0.7672,0.7612,0.7661,0.7662,0.7682,0.7681,0.7844,0.7689,0.7689,0.7688,0.7688,0,0.7709,0.775,0.7696,0.7721,0.7765,0.772,0.7765,0.7751,0.7741,0.7763,0.7714,0.7735,0.7691,0.7708,0.7683,0.7724,0.7727,0.7716,0.7709,0.772,0.7721,0.7724,0.7716,0.7692,0.7691,0.7691,0.769,0,0.7848,0.7814,0.7853,0.7826,0.7821,0.7854,0.7832,0.7854,0.7832,0.786,0.7864,0.7831,0.7849,0.7817,0.7832,0.7814,0.7871,0.7854,0.7873,0.7868,0.7918,0.7914,0.8088,0.8108,0.7941,0.7943,0.7944,0,0.7929,0.7958,0.7934,0.7944,0.7937,0.7954,0.796,0.7917,0.7926,0.7919,0.7942,0.7955,0.7964,0.7995,0.7974,0.7985,0.7966,0.8027,0.7968,0.7978,0.7966,0.7964,0.7967,0.8039,0.8041,0.8042,0.8044,0,0.8076,0.8057,0.8066,0.807,0.8078,0.8079,0.8078,0.8089,0.8044,0.8057,0.8073,0.8079,0.8093,0.8107,0.8113,0.8105,0.8068,0.8062,0.8074,0.8085,0.8095,0.8089,0.7905,0.8058,0.8057,0.8056,0.8055,0.8055,0.8187,0.821,0.8196,0.8208,0.8202,0.8201,0.822,0.82,0.8212,0.8218,0.8193,0.8215,0.8207,0.821,0.8207,0.8224,0.8198,0.8215,0.8219,0.8224,0.8231,0.8093,0.8225,0.8225,0.8224,0.8224,0.8224,0,0.833,0.8318,0.8329,0.8327,0.8337,0.8298,0.8294,0.8306,0.8325,0.8319,0.8328,0.8347,0.836,0.8339,0.8349,0.8367,0.835,0.8371,0.8369,0.8368,0.8255,0.8243,0.8385,0.8385,0.8385,0.8385,0.8385,0.8385,0.8405,0.8442,0.8422,0.8455,0.8443,0.8462,0.8463,0.8462,0.8457,0.848,0.849,0.8475,0.8464,0.8472,0.8483,0.8476,0.8482,0.8509,0.8497,0.8392,0.8376,0.8361,0.835,0.8511,0.8511,0.8608,0.8609,0.861]},{"header":{"parameterUnit":"m.s-1","parameterCategory":1,"la1":30.2991,"la2":30.254,"lo1":-89.0895,"lo2":-89.0444,"dy":0.0017,"dx":0.0017,"nx":28,"ny":28,"refTime":"2023-07-31T03:00:00:Z","depth":0,"parameterNumber":3,"parameterNumberName":"V-component_of_WINDS"},"data":[0,0,0,0,0,0,0,0,0,0,0,0,0,0,0,0,0,0,0,0,0,0,0,0,0,0,0,0,0,0,0,0,0,0,0,0,0,0,0,0,0,0,0,0,0,0,0,0,0,0,0,0,0,0,0,0,0,0,1.004,1.0041,0,1.0102,1.0102,1.0103,1.0069,1.0067,1.0066,1.0064,1.0124,1.0127,1.013,0,0,0,0,0,0,0,0,0,0,0,0,0,0.989,0.9893,1.004,1.0041,1.0042,1.0101,1.0102,1.0103,1.0069,1.0067,1.0065,1.0063,1.0123,1.0127,1.0131,0,0,0,0,0,0,0,0,0,0,0,0,0,0.9953,0.9894,1.004,1.0032,1.0032,1.0101,1.0102,1.0103,1.007,1.0067,1.0065,1.0062,1.0122,1.0126,1.0131,1.0211,0,0,1.0146,1.0148,0,0,0,0,0,0,0,0,0.995,0.9959,1.0032,1.0033,1.0033,1.0075,1.0071,1.0139,1.007,1.0055,1.0064,1.0061,1.011,1.0115,1.0132,1.0214,1.0216,1.0146,1.0149,1.0151,1.0152,0,0,0,0,0,0,0,0.9946,0.9956,1.0064,1.0034,1.0034,1.0024,1.003,1.0084,1.0096,1.0056,1.0054,1.0062,1.0109,1.0128,1.0133,1.0217,1.0146,1.015,1.0153,1.0155,1.0366,1.0368,0,0,0,0,0,0,0.9942,0.9953,1.0062,1.0066,0.9984,1.0029,1.0036,1.0064,1.0095,1.0097,1.0064,1.006,1.0121,1.0128,1.0135,1.023,1.0151,1.0155,1.0158,1.0363,1.0366,1.0369,0,0,0,0,0,0,0.9939,0.9952,1.006,1.0009,1.0022,1.0034,1.0066,1.0067,1.0085,1.0101,1.0102,1.0081,1.0119,1.0129,1.0192,1.0232,1.0158,1.0162,1.036,1.0364,1.0368,1.0421,0,0,0,0,0,0,0.9935,0.9951,0.9983,1.001,1.0025,1.0117,1.0068,1.007,1.0094,1.0089,1.0117,1.012,1.0118,1.0185,1.0197,1.0237,1.0166,1.0356,1.0362,1.0366,1.0416,1.0427,1.0436,0,0,0,0,0,0.993,0.9995,0.9985,0.9998,1.0065,1.012,1.0128,1.0126,1.0097,1.0128,1.0138,1.0119,1.0225,1.0192,1.0205,1.0247,1.0354,1.036,1.0366,1.0411,1.0424,1.0435,0,0,0,0,0,0,0.9972,0.9999,0.9987,1.0064,1.009,1.0114,1.0153,1.014,1.0174,1.0168,1.0162,1.0169,1.0235,1.0247,1.021,1.0325,1.0285,1.0294,1.0315,1.0328,1.0337,1.0333,1.017,0,0,0,0,0,0.999,1.0034,1.0054,1.012,1.0133,1.0141,1.0165,1.0161,1.0187,1.0198,1.0212,1.0238,1.0277,1.0303,1.0339,1.0417,1.0422,1.0452,1.0462,1.047,1.0478,1.0519,1.0532,1.0389,1.0389,1.0389,0,0,1.0029,1.0049,1.0076,1.0129,1.0149,1.0192,1.0151,1.0199,1.0231,1.0205,1.0266,1.0277,1.0305,1.0376,1.0407,1.0388,1.0518,1.0478,1.0484,1.0488,1.0526,1.054,1.0552,1.0394,1.0393,1.0392,0,0,1.0121,1.0141,1.0197,1.0218,1.0248,1.0252,1.0266,1.0292,1.0298,1.036,1.034,1.0377,1.0445,1.0465,1.0485,1.0583,1.0566,1.0595,1.0647,1.0686,1.0697,1.0707,1.0742,1.0754,1.0602,1.0603,1.0603,0,1.0165,1.0232,1.0228,1.0278,1.0301,1.0279,1.0335,1.0354,1.0395,1.0411,1.0388,1.0472,1.0489,1.0564,1.0587,1.0604,1.0618,1.0592,1.0696,1.0706,1.0715,1.0748,1.0761,1.0606,1.0605,1.0605,1.0605,0,1.0283,1.0329,1.0371,1.0411,1.0439,1.0492,1.0494,1.0522,1.0515,1.0521,1.0583,1.0603,1.0643,1.066,1.0653,1.0733,1.072,1.0697,1.0657,1.0732,1.0763,1.0776,1.0611,1.0609,1.0608,1.0608,0,0,1.0406,1.0442,1.0457,1.0475,1.0506,1.0541,1.0591,1.0631,1.0655,1.0683,1.0725,1.0782,1.0761,1.0782,1.0777,1.0812,1.0888,1.0785,1.0785,1.0803,1.0976,1.0993,1.1008,1.0876,1.0878,1.088,1.0973,0,1.05,1.059,1.0587,1.0671,1.0713,1.0691,1.0735,1.0758,1.0765,1.08,1.0807,1.0848,1.0817,1.0829,1.0863,1.0871,1.0922,1.0864,1.0914,1.0916,1.0909,1.1024,1.1043,1.113,1.0985,1.0988,1.0989,0,1.0622,1.0655,1.0743,1.0766,1.0784,1.0824,1.0859,1.0894,1.0918,1.0921,1.0944,1.0933,1.0983,1.0941,1.1009,1.097,1.0989,1.0996,1.1,1.1005,1.0958,1.1032,1.1158,1.1171,1.1008,1.1006,1.1005,0,1.0702,1.0768,1.0829,1.0844,1.0873,1.0902,1.0915,1.0937,1.0961,1.0991,1.1006,1.1042,1.1061,1.1088,1.1086,1.1056,1.1155,1.1113,1.1158,1.1158,1.118,1.1179,1.1311,1.1192,1.1192,1.1192,1.1192,0,1.0808,1.0862,1.0865,1.0903,1.0962,1.0958,1.1017,1.1027,1.1046,1.1084,1.1067,1.1103,1.1099,1.1134,1.1133,1.1189,1.1198,1.12,1.1199,1.1202,1.1202,1.1215,1.1209,1.1195,1.1195,1.1194,1.1193,0,1.0908,1.0912,1.0977,1.0999,1.1005,1.1049,1.1067,1.1101,1.1106,1.1154,1.1165,1.1172,1.1213,1.1214,1.126,1.1259,1.1328,1.132,1.132,1.1318,1.1363,1.1359,1.1509,1.1528,1.1397,1.1398,1.1399,0,1.0975,1.1017,1.1043,1.1068,1.1083,1.1123,1.1147,1.1143,1.1168,1.1199,1.123,1.1269,1.13,1.1366,1.1374,1.1409,1.1402,1.1452,1.1407,1.1409,1.1403,1.1401,1.1405,1.1461,1.1463,1.1464,1.1465,0,1.1094,1.1094,1.113,1.1166,1.1195,1.1224,1.1249,1.127,1.1269,1.1298,1.134,1.1364,1.1412,1.145,1.1484,1.1496,1.148,1.1479,1.1491,1.1495,1.1493,1.1495,1.1344,1.1476,1.1475,1.1474,1.1473,1.1473,1.118,1.1216,1.124,1.128,1.1299,1.1323,1.1357,1.1365,1.1401,1.144,1.1434,1.1481,1.1503,1.1547,1.1561,1.1597,1.1579,1.1597,1.1601,1.1606,1.1611,1.1487,1.1603,1.1602,1.1602,1.1602,1.1601,0,1.1298,1.1312,1.1349,1.1386,1.1417,1.14,1.1427,1.1454,1.1496,1.1518,1.1549,1.1596,1.1633,1.1645,1.168,1.1706,1.17,1.1716,1.1714,1.1717,1.1625,1.1611,1.172,1.172,1.172,1.172,1.172,1.172,1.1364,1.1423,1.1425,1.1493,1.1506,1.1552,1.1569,1.1591,1.1608,1.1662,1.1694,1.1701,1.1718,1.1754,1.1787,1.1789,1.1803,1.1822,1.1821,1.1735,1.1723,1.1712,1.1699,1.1825,1.1825,1.1911,1.1911,1.1912]}]]